| time (UTC) | temp F | wind direction | speed MPH | gust MPH | rain 1hr in | rain 24hr in | rain mn in | humidity % | barometer mb |
| 20260506044019 | 46 | 245 | 2.0 | 7.0 | 0.00 | 0.00 | 0.00 | 91 | 1018.3 |
| 20260506043529 | 46 | 226 | 1.0 | 8.0 | 0.00 | 0.00 | 0.00 | 91 | 1018.4 |
| 20260506043019 | 46 | 241 | 2.0 | 8.0 | 0.00 | 0.00 | 0.00 | 91 | 1018.3 |
| 20260506042519 | 46 | 217 | 2.0 | 9.0 | 0.00 | 0.00 | 0.00 | 91 | 1018.3 |
| 20260506042018 | 46 | 271 | 4.0 | 9.0 | 0.00 | 0.00 | 0.00 | 90 | 1018.3 |
| 20260506041519 | 46 | 254 | 2.0 | 9.0 | 0.00 | 0.00 | 0.00 | 90 | 1018.3 |
| 20260506041018 | 46 | 284 | 2.0 | 9.0 | 0.00 | 0.00 | 0.00 | 90 | 1018.3 |
| 20260506040526 | 46 | 205 | 2.0 | 7.0 | 0.00 | 0.00 | 0.00 | 90 | 1018.3 |
| 20260506040026 | 46 | 238 | 3.0 | 10.0 | 0.00 | 0.00 | 0.00 | 90 | 1018.3 |
| 20260506035525 | 46 | 275 | 3.0 | 10.0 | 0.00 | 0.00 | 0.00 | 90 | 1018.4 |
| 20260506035025 | 46 | 238 | 3.0 | 7.0 | 0.00 | 0.00 | 0.00 | 90 | 1018.5 |
| 20260506034525 | 46 | 131 | 3.0 | 8.0 | 0.00 | 0.00 | 0.00 | 90 | 1018.4 |
| 20260506034036 | 47 | 250 | 3.0 | 10.0 | 0.00 | 0.00 | 0.00 | 91 | 1018.2 |
| 20260506033525 | 46 | 203 | 4.0 | 12.0 | 0.00 | 0.00 | 0.00 | 91 | 1018.2 |
| 20260506033023 | 46 | 288 | 5.0 | 12.0 | 0.00 | 0.00 | 0.00 | 91 | 1018.3 |
| 20260506032523 | 46 | 292 | 2.0 | 9.0 | 0.00 | 0.00 | 0.00 | 91 | 1018.3 |
| 20260506032021 | 45 | 245 | 2.0 | 9.0 | 0.00 | 0.00 | 0.00 | 91 | 1018.3 |
| 20260506031521 | 45 | 34 | 3.0 | 9.0 | 0.00 | 0.00 | 0.00 | 90 | 1018.4 |
| 20260506031021 | 45 | 242 | 2.0 | 7.0 | 0.00 | 0.00 | 0.00 | 90 | 1018.3 |
| 20260506030522 | 45 | 264 | 2.0 | 8.0 | 0.00 | 0.00 | 0.00 | 90 | 1018.3 |
| 20260506030021 | 45 | 217 | 2.0 | 8.0 | 0.00 | 0.00 | 0.00 | 90 | 1018.2 |
| 20260506025531 | 45 | 321 | 2.0 | 8.0 | 0.00 | 0.00 | 0.00 | 91 | 1018.2 |
| 20260506025020 | 46 | 200 | 2.0 | 6.0 | 0.00 | 0.00 | 0.00 | 90 | 1018.3 |
| 20260506024532 | 46 | 160 | 2.0 | 9.0 | 0.00 | 0.00 | 0.00 | 91 | 1018.2 |
| 20260506024020 | 46 | 221 | 2.0 | 9.0 | 0.00 | 0.00 | 0.00 | 91 | 1018.3 |
| 20260506023521 | 46 | 269 | 3.0 | 7.0 | 0.00 | 0.00 | 0.00 | 91 | 1018.3 |
| 20260506023020 | 46 | 255 | 3.0 | 10.0 | 0.00 | 0.00 | 0.00 | 91 | 1018.2 |
| 20260506022521 | 46 | 255 | 3.0 | 9.0 | 0.00 | 0.00 | 0.00 | 91 | 1018.3 |
| 20260506022020 | 46 | 249 | 2.0 | 7.0 | 0.00 | 0.00 | 0.00 | 91 | 1018.3 |
| 20260506021521 | 46 | 218 | 2.0 | 8.0 | 0.00 | 0.00 | 0.00 | 91 | 1018.4 |
| 20260506021020 | 46 | 304 | 3.0 | 9.0 | 0.00 | 0.00 | 0.00 | 91 | 1018.4 |
| 20260506020521 | 46 | 203 | 2.0 | 9.0 | 0.00 | 0.00 | 0.00 | 92 | 1018.4 |
| 20260506020021 | 46 | 42 | 2.0 | 10.0 | 0.00 | 0.00 | 0.00 | 92 | 1018.4 |
| 20260506015521 | 46 | 342 | 2.0 | 10.0 | 0.00 | 0.00 | 0.00 | 92 | 1018.4 |
| 20260506015022 | 45 | 255 | 2.0 | 9.0 | 0.00 | 0.00 | 0.00 | 92 | 1018.4 |
| 20260506014521 | 45 | 257 | 3.0 | 9.0 | 0.00 | 0.00 | 0.00 | 92 | 1018.3 |
| 20260506014020 | 45 | 259 | 4.0 | 8.0 | 0.00 | 0.00 | 0.00 | 92 | 1018.3 |
| 20260506013522 | 45 | 221 | 3.0 | 8.0 | 0.00 | 0.00 | 0.00 | 93 | 1018.2 |
| 20260506013020 | 45 | 97 | 3.0 | 6.0 | 0.00 | 0.00 | 0.00 | 92 | 1018.3 |
| 20260506012520 | 44 | 246 | 2.0 | 5.0 | 0.00 | 0.00 | 0.00 | 92 | 1018.2 |
| 20260506012021 | 44 | 273 | 2.0 | 6.0 | 0.00 | 0.00 | 0.00 | 92 | 1018.1 |
| 20260506011522 | 44 | 143 | 1.0 | 6.0 | 0.00 | 0.00 | 0.00 | 92 | 1018.1 |
| 20260506011022 | 44 | 314 | 2.0 | 8.0 | 0.00 | 0.00 | 0.00 | 92 | 1018.2 |
| 20260506010521 | 44 | 14 | 1.0 | 8.0 | 0.00 | 0.00 | 0.00 | 92 | 1018.0 |
| 20260506010021 | 45 | 263 | 3.0 | 7.0 | 0.00 | 0.00 | 0.00 | 92 | 1017.9 |
| 20260506005522 | 45 | 233 | 2.0 | 6.0 | 0.00 | 0.00 | 0.00 | 92 | 1017.9 |
| 20260506005022 | 45 | 239 | 2.0 | 6.0 | 0.00 | 0.00 | 0.00 | 92 | 1017.6 |
| 20260506004521 | 45 | 256 | 2.0 | 7.0 | 0.00 | 0.00 | 0.00 | 92 | 1017.4 |
| 20260506004020 | 45 | 270 | 2.0 | 7.0 | 0.00 | 0.00 | 0.00 | 92 | 1017.3 |
| 20260506003519 | 45 | 257 | 3.0 | 7.0 | 0.00 | 0.00 | 0.00 | 92 | 1017.3 |
| 20260506003019 | 45 | 198 | 2.0 | 9.0 | 0.00 | 0.00 | 0.00 | 91 | 1017.3 |
| 20260506002519 | 45 | 224 | 3.0 | 10.0 | 0.00 | 0.00 | 0.00 | 91 | 1017.1 |
| 20260506002031 | 45 | 255 | 3.0 | 10.0 | 0.00 | 0.00 | 0.00 | 92 | 1017.1 |
| 20260506001519 | 45 | 226 | 2.0 | 8.0 | 0.00 | 0.00 | 0.00 | 92 | 1017.0 |
| 20260506001020 | 45 | 167 | 2.0 | 8.0 | 0.00 | 0.00 | 0.00 | 92 | 1016.9 |
| 20260506000519 | 45 | 193 | 4.0 | 11.0 | 0.00 | 0.00 | 0.00 | 92 | 1016.8 |
| 20260506000018 | 45 | 225 | 4.0 | 10.0 | 0.00 | 0.00 | 0.00 | 92 | 1016.7 |
| 20260505235531 | 45 | 247 | 4.0 | 10.0 | 0.00 | 0.00 | 0.00 | 92 | 1016.7 |
| 20260505235030 | 45 | 273 | 3.0 | 10.0 | 0.00 | 0.00 | 0.00 | 92 | 1016.6 |
| 20260505234519 | 45 | 221 | 3.0 | 10.0 | 0.00 | 0.00 | 0.00 | 91 | 1016.5 |
| 20260505234019 | 45 | 244 | 4.0 | 11.0 | 0.00 | 0.00 | 0.00 | 91 | 1016.4 |
| 20260505233519 | 45 | 241 | 4.0 | 11.0 | 0.00 | 0.00 | 0.00 | 91 | 1016.5 |
| 20260505233019 | 45 | 264 | 3.0 | 8.0 | 0.00 | 0.00 | 0.00 | 91 | 1016.2 |
| 20260505230522 | 46 | 286 | 3.0 | 14.0 | 0.00 | 0.00 | 0.00 | 91 | 1015.9 |
| 20260505230019 | 46 | 208 | 5.0 | 14.0 | 0.00 | 0.00 | 0.00 | 90 | 1015.8 |
| 20260505225521 | 46 | 245 | 5.0 | 14.0 | 0.00 | 0.00 | 0.00 | 90 | 1015.6 |
| 20260505222019 | 47 | 210 | 3.0 | 10.0 | 0.00 | 0.00 | 0.00 | 90 | 1015.4 |
| 20260505213031 | 48 | 245 | 3.0 | 11.0 | 0.00 | 0.00 | 0.00 | 88 | 1015.2 |
| 20260505205531 | 48 | 301 | 4.0 | 12.0 | 0.00 | 0.00 | 0.00 | 87 | 1015.5 |
| 20260505204520 | 48 | 293 | 3.0 | 15.0 | 0.00 | 0.00 | 0.00 | 87 | 1015.6 |
| 20260505203519 | 48 | 179 | 4.0 | 12.0 | 0.00 | 0.00 | 0.00 | 86 | 1015.7 |
| 20260505202520 | 48 | 167 | 3.0 | 12.0 | 0.00 | 0.00 | 0.00 | 86 | 1015.7 |
| 20260505194020 | 49 | 72 | 3.0 | 12.0 | 0.00 | 0.00 | 0.00 | 84 | 1015.8 |
| 20260505183020 | 49 | 269 | 6.0 | 16.0 | 0.00 | 0.00 | 0.00 | 83 | 1015.5 |
| 20260505175520 | 49 | 257 | 5.0 | 13.0 | 0.00 | 0.00 | 0.00 | 80 | 1016.0 |
| 20260505171520 | 49 | 233 | 7.0 | 17.0 | 0.00 | 0.00 | 0.00 | 80 | 1015.8 |
| 20260505161116 | 50 | 219 | 5.0 | 15.0 | 0.00 | 0.00 | 0.00 | 79 | 1015.9 |
| 20260505125009 | 48 | 218 | 3.0 | 12.0 | 0.00 | 0.00 | 0.00 | 80 | 1015.1 |
| 20260505124516 | 47 | 270 | 4.0 | 12.0 | 0.00 | 0.00 | 0.00 | 80 | 1015.0 |
| 20260505124008 | 47 | 151 | 4.0 | 12.0 | 0.00 | 0.00 | 0.00 | 80 | 1014.9 |
| 20260505123516 | 47 | 302 | 4.0 | 15.0 | 0.00 | 0.00 | 0.00 | 80 | 1014.9 |
| 20260505123008 | 47 | 264 | 5.0 | 15.0 | 0.00 | 0.00 | 0.00 | 79 | 1014.8 |
| 20260505122516 | 47 | 247 | 4.0 | 10.0 | 0.00 | 0.00 | 0.00 | 80 | 1015.0 |
| 20260505122021 | 47 | 255 | 2.0 | 10.0 | 0.00 | 0.00 | 0.00 | 81 | 1015.0 |
| 20260505121516 | 47 | 236 | 3.0 | 12.0 | 0.00 | 0.00 | 0.00 | 81 | 1014.9 |
| 20260505121009 | 46 | 266 | 4.0 | 12.0 | 0.00 | 0.00 | 0.00 | 80 | 1014.9 |
| 20260505120516 | 46 | 117 | 4.0 | 11.0 | 0.00 | 0.00 | 0.00 | 81 | 1014.7 |
| 20260505120009 | 46 | 262 | 4.0 | 10.0 | 0.00 | 0.00 | 0.00 | 80 | 1014.6 |
| 20260505115521 | 46 | 253 | 2.0 | 12.0 | 0.00 | 0.00 | 0.00 | 82 | 1014.5 |
| 20260505115009 | 45 | 249 | 3.0 | 12.0 | 0.00 | 0.00 | 0.00 | 83 | 1014.4 |
| 20260505114517 | 45 | 252 | 2.0 | 10.0 | 0.00 | 0.00 | 0.00 | 84 | 1014.4 |
| 20260505114020 | 44 | 177 | 3.0 | 14.0 | 0.00 | 0.00 | 0.00 | 84 | 1014.2 |
| 20260505113516 | 44 | 246 | 4.0 | 14.0 | 0.00 | 0.00 | 0.00 | 84 | 1014.2 |
| 20260505113009 | 44 | 253 | 4.0 | 10.0 | 0.00 | 0.00 | 0.00 | 84 | 1014.1 |
| 20260505112517 | 44 | 225 | 2.0 | 11.0 | 0.00 | 0.00 | 0.00 | 85 | 1014.2 |
| 20260505112020 | 43 | 188 | 3.0 | 11.0 | 0.00 | 0.00 | 0.00 | 86 | 1014.0 |
| 20260505111517 | 42 | 267 | 3.0 | 9.0 | 0.00 | 0.00 | 0.00 | 87 | 1013.9 |
| 20260505111009 | 42 | 255 | 2.0 | 8.0 | 0.00 | 0.00 | 0.00 | 87 | 1013.9 |
| 20260505110527 | 42 | 231 | 2.0 | 9.0 | 0.00 | 0.00 | 0.00 | 87 | 1013.9 |
| 20260505102031 | 41 | 275 | 3.0 | 9.0 | 0.00 | 0.00 | 0.00 | 88 | 1013.5 |
| 20260505101517 | 41 | 254 | 2.0 | 9.0 | 0.00 | 0.00 | 0.00 | 88 | 1013.4 |
| 20260505101020 | 41 | 288 | 2.0 | 7.0 | 0.00 | 0.00 | 0.00 | 88 | 1013.5 |
| 20260505100517 | 41 | 235 | 3.0 | 7.0 | 0.00 | 0.00 | 0.00 | 88 | 1013.4 |
| 20260505100010 | 41 | 258 | 3.0 | 8.0 | 0.00 | 0.00 | 0.00 | 89 | 1013.5 |
| 20260505095527 | 41 | 244 | 3.0 | 9.0 | 0.00 | 0.00 | 0.00 | 89 | 1013.2 |
| 20260505095008 | 41 | 266 | 3.0 | 6.0 | 0.00 | 0.00 | 0.00 | 89 | 1013.3 |
| 20260505094521 | 41 | 272 | 2.0 | 9.0 | 0.00 | 0.00 | 0.00 | 89 | 1013.5 |
| 20260505094009 | 40 | 276 | 3.0 | 9.0 | 0.00 | 0.00 | 0.00 | 89 | 1013.4 |
| 20260505093517 | 40 | 257 | 2.0 | 10.0 | 0.00 | 0.00 | 0.00 | 89 | 1013.4 |
| 20260505093020 | 40 | 217 | 3.0 | 10.0 | 0.00 | 0.00 | 0.00 | 88 | 1013.1 |
| 20260505092521 | 40 | 133 | 2.0 | 10.0 | 0.00 | 0.00 | 0.00 | 89 | 1013.3 |
| 20260505092010 | 40 | 279 | 3.0 | 10.0 | 0.00 | 0.00 | 0.00 | 89 | 1013.2 |
| 20260505091516 | 40 | 4 | 3.0 | 11.0 | 0.00 | 0.00 | 0.00 | 89 | 1013.2 |
| 20260505091009 | 40 | 248 | 3.0 | 11.0 | 0.00 | 0.00 | 0.00 | 89 | 1012.8 |
| 20260505090517 | 40 | 261 | 4.0 | 10.0 | 0.00 | 0.00 | 0.00 | 89 | 1012.8 |
| 20260505090018 | 40 | 265 | 3.0 | 10.0 | 0.00 | 0.00 | 0.00 | 89 | 1013.0 |
| 20260505085516 | 40 | 242 | 3.0 | 6.0 | 0.00 | 0.01 | 0.00 | 89 | 1013.0 |
| 20260505085009 | 40 | 264 | 1.0 | 6.0 | 0.00 | 0.01 | 0.00 | 89 | 1013.0 |
| 20260505084517 | 40 | 264 | 2.0 | 8.0 | 0.00 | 0.01 | 0.00 | 89 | 1013.0 |
| 20260505084009 | 40 | 271 | 1.0 | 8.0 | 0.00 | 0.01 | 0.00 | 88 | 1012.8 |
| 20260505083517 | 40 | 309 | 2.0 | 10.0 | 0.00 | 0.01 | 0.00 | 88 | 1012.8 |
| 20260505083009 | 40 | 221 | 2.0 | 10.0 | 0.00 | 0.01 | 0.00 | 88 | 1012.7 |
| 20260505082516 | 40 | 283 | 2.0 | 8.0 | 0.00 | 0.01 | 0.00 | 88 | 1012.6 |
| 20260505082020 | 40 | 221 | 3.0 | 10.0 | 0.00 | 0.01 | 0.00 | 88 | 1012.6 |
| 20260505081517 | 40 | 296 | 3.0 | 10.0 | 0.00 | 0.01 | 0.00 | 88 | 1012.8 |
| 20260505081009 | 40 | 318 | 3.0 | 10.0 | 0.00 | 0.01 | 0.00 | 88 | 1012.8 |
| 20260505080532 | 40 | 226 | 2.0 | 8.0 | 0.00 | 0.01 | 0.00 | 88 | 1012.8 |
| 20260505080009 | 40 | 325 | 3.0 | 9.0 | 0.00 | 0.01 | 0.00 | 88 | 1012.6 |
| 20260505075517 | 40 | 269 | 4.0 | 10.0 | 0.00 | 0.02 | 0.00 | 88 | 1012.6 |
| 20260505075009 | 41 | 277 | 4.0 | 11.0 | 0.00 | 0.02 | 0.00 | 88 | 1012.6 |
| 20260505074516 | 41 | 266 | 3.0 | 11.0 | 0.00 | 0.02 | 0.00 | 88 | 1012.6 |
| 20260505074021 | 41 | 214 | 3.0 | 9.0 | 0.00 | 0.02 | 0.00 | 87 | 1012.5 |
| 20260505073528 | 41 | 110 | 3.0 | 9.0 | 0.00 | 0.02 | 0.00 | 87 | 1012.5 |
| 20260505073009 | 41 | 229 | 2.0 | 9.0 | 0.00 | 0.02 | 0.00 | 87 | 1012.7 |
| 20260505072516 | 41 | 236 | 4.0 | 9.0 | 0.00 | 0.02 | 0.00 | 87 | 1012.5 |
| 20260505072009 | 41 | 338 | 4.0 | 9.0 | 0.00 | 0.02 | 0.00 | 87 | 1012.4 |
| 20260505071517 | 41 | 148 | 5.0 | 9.0 | 0.00 | 0.02 | 0.00 | 87 | 1012.0 |
| 20260505071009 | 41 | 14 | 4.0 | 9.0 | 0.00 | 0.02 | 0.00 | 87 | 1012.0 |
| 20260505070517 | 41 | 224 | 2.0 | 10.0 | 0.00 | 0.02 | 0.00 | 87 | 1011.9 |
| 20260505070010 | 41 | 233 | 2.0 | 10.0 | 0.00 | 0.02 | 0.00 | 87 | 1011.8 |
| 20260505065516 | 41 | 246 | 3.0 | 9.0 | 0.00 | 0.09 | 0.00 | 87 | 1011.8 |
| 20260505065010 | 41 | 273 | 3.0 | 15.0 | 0.00 | 0.09 | 0.00 | 86 | 1011.8 |
| 20260505064527 | 41 | 205 | 2.0 | 15.0 | 0.00 | 0.09 | 0.00 | 86 | 1011.7 |
| 20260505064009 | 41 | 271 | 3.0 | 9.0 | 0.00 | 0.09 | 0.00 | 86 | 1011.8 |
| 20260505063516 | 41 | 245 | 2.0 | 12.0 | 0.00 | 0.09 | 0.00 | 86 | 1012.0 |
| 20260505063009 | 41 | 250 | 4.0 | 12.0 | 0.00 | 0.09 | 0.00 | 86 | 1011.7 |
| 20260505062522 | 41 | 29 | 3.0 | 12.0 | 0.00 | 0.09 | 0.00 | 87 | 1011.5 |
| 20260505062009 | 41 | 209 | 5.0 | 12.0 | 0.00 | 0.09 | 0.00 | 87 | 1011.5 |
| 20260505061530 | 41 | 233 | 3.0 | 8.0 | 0.00 | 0.09 | 0.00 | 87 | 1011.6 |
| 20260505061020 | 41 | 305 | 2.0 | 9.0 | 0.00 | 0.09 | 0.00 | 86 | 1011.4 |
| 20260505060516 | 41 | 78 | 3.0 | 9.0 | 0.00 | 0.09 | 0.00 | 86 | 1011.4 |
| 20260505060011 | 41 | 126 | 3.0 | 14.0 | 0.00 | 0.09 | 0.00 | 86 | 1011.4 |
| 20260505055516 | 41 | 179 | 3.0 | 14.0 | 0.00 | 0.16 | 0.00 | 85 | 1011.3 |
| 20260505055009 | 42 | 255 | 4.0 | 13.0 | 0.00 | 0.16 | 0.00 | 85 | 1011.4 |
| 20260505054517 | 41 | 302 | 3.0 | 13.0 | 0.00 | 0.16 | 0.00 | 86 | 1011.2 |
| 20260505054009 | 41 | 256 | 2.0 | 10.0 | 0.00 | 0.16 | 0.00 | 86 | 1011.3 |
| 20260505053517 | 41 | 273 | 2.0 | 10.0 | 0.00 | 0.16 | 0.00 | 86 | 1011.2 |
| 20260505053009 | 41 | 241 | 3.0 | 11.0 | 0.00 | 0.16 | 0.00 | 86 | 1011.3 |
| 20260505052517 | 41 | 221 | 2.0 | 11.0 | 0.00 | 0.16 | 0.00 | 86 | 1011.2 |
| 20260505052010 | 41 | 203 | 3.0 | 13.0 | 0.00 | 0.16 | 0.00 | 87 | 1011.2 |
| 20260505051528 | 41 | 219 | 3.0 | 13.0 | 0.00 | 0.16 | 0.00 | 87 | 1011.1 |
| 20260505051009 | 41 | 219 | 3.0 | 12.0 | 0.00 | 0.16 | 0.00 | 87 | 1011.2 |
| 20260505050517 | 41 | 287 | 3.0 | 12.0 | 0.00 | 0.16 | 0.00 | 87 | 1011.1 |